TimeCST,TemperatureF,Dew PointF,Humidity,Sea Level PressureIn,VisibilityMPH,Wind Direction,Wind SpeedMPH,Gust SpeedMPH,PrecipitationIn,Events,Conditions,WindDirDegrees,DateUTC
12:15 AM,-4.0,-7.6,85,30.19,-9999.0,South,8.1,-,N/A,,Unknown,180,2013-02-16 06:15:00
12:35 AM,-2.2,-5.8,85,30.18,-9999.0,SSE,6.9,-,N/A,,Unknown,160,2013-02-16 06:35:00
12:55 AM,-0.4,-4.0,85,30.18,-9999.0,SSE,6.9,-,N/A,,Unknown,160,2013-02-16 06:55:00
1:15 AM,-0.4,-2.2,92,30.17,-9999.0,South,9.2,-,N/A,,Unknown,170,2013-02-16 07:15:00
1:35 AM,-0.4,-2.2,92,30.16,-9999.0,South,9.2,-,N/A,,Unknown,170,2013-02-16 07:35:00
1:55 AM,1.4,-0.4,92,30.15,-9999.0,South,9.2,-,N/A,,Unknown,180,2013-02-16 07:55:00
2:15 AM,1.4,-0.4,92,30.15,-9999.0,SSE,9.2,-,N/A,,Unknown,150,2013-02-16 08:15:00
2:35 AM,1.4,-0.4,92,30.14,-9999.0,SSE,10.4,-,N/A,,Unknown,150,2013-02-16 08:35:00
2:55 AM,-0.4,-0.4,100,30.13,-9999.0,SSE,9.2,-,N/A,,Unknown,150,2013-02-16 08:55:00
3:15 AM,1.4,-0.4,92,30.11,-9999.0,SSE,10.4,-,N/A,,Unknown,150,2013-02-16 09:15:00
3:35 AM,1.4,-0.4,92,30.10,-9999.0,SSE,10.4,-,N/A,,Unknown,150,2013-02-16 09:35:00
3:55 AM,3.2,1.4,92,30.08,-9999.0,SSE,11.5,-,N/A,,Unknown,160,2013-02-16 09:55:00
4:15 AM,5.0,3.2,92,30.07,-9999.0,South,11.5,-,N/A,,Overcast,170,2013-02-16 10:15:00
4:35 AM,5.0,3.2,92,30.07,-9999.0,South,10.4,-,N/A,,Unknown,170,2013-02-16 10:35:00
5:15 AM,6.8,5.0,92,30.05,-9999.0,South,9.2,-,N/A,,Unknown,170,2013-02-16 11:15:00
5:35 AM,6.8,5.0,92,30.04,-9999.0,SSE,9.2,-,N/A,,Unknown,160,2013-02-16 11:35:00
5:55 AM,6.8,6.8,100,30.03,-9999.0,SSE,9.2,-,N/A,,Unknown,150,2013-02-16 11:55:00
6:15 AM,6.8,6.8,100,30.03,-9999.0,SSE,9.2,-,N/A,,Unknown,150,2013-02-16 12:15:00
6:35 AM,6.8,6.8,100,30.03,-9999.0,SSE,9.2,-,N/A,,Unknown,150,2013-02-16 12:35:00
6:55 AM,8.6,6.8,92,30.02,-9999.0,SSE,8.1,-,N/A,,Unknown,150,2013-02-16 12:55:00
7:15 AM,8.6,8.6,100,30.03,-9999.0,South,6.9,-,N/A,Snow,Heavy Snow,180,2013-02-16 13:15:00
7:35 AM,10.4,10.4,100,30.02,-9999.0,SSE,6.9,-,N/A,Snow,Heavy Snow,160,2013-02-16 13:35:00
7:55 AM,10.4,10.4,100,30.02,-9999.0,SE,8.1,-,N/A,Snow,Heavy Snow,140,2013-02-16 13:55:00
8:15 AM,10.4,10.4,100,30.02,-9999.0,SSE,5.8,-,N/A,,Unknown,160,2013-02-16 14:15:00
8:35 AM,12.2,12.2,100,30.02,-9999.0,SSE,4.6,-,N/A,Snow,Heavy Snow,160,2013-02-16 14:35:00
8:55 AM,14.0,14.0,100,30.02,-9999.0,SSE,5.8,-,N/A,Snow,Heavy Snow,150,2013-02-16 14:55:00
9:15 AM,14.0,14.0,100,30.01,-9999.0,SSE,6.9,-,N/A,Snow,Heavy Snow,150,2013-02-16 15:15:00
9:35 AM,15.8,15.8,100,30.01,-9999.0,SSE,8.1,-,N/A,Snow,Heavy Snow,150,2013-02-16 15:35:00
12:15 PM,19.4,19.4,100,30.00,-9999.0,SSE,9.2,-,N/A,Snow,Heavy Snow,160,2013-02-16 18:15:00
12:35 PM,21.2,21.2,100,29.99,-9999.0,SSE,9.2,-,N/A,,Unknown,150,2013-02-16 18:35:00
12:55 PM,21.2,21.2,100,29.98,-9999.0,SSE,9.2,-,N/A,,Unknown,160,2013-02-16 18:55:00
1:15 PM,23.0,23.0,100,29.98,-9999.0,SSE,9.2,-,N/A,,Unknown,150,2013-02-16 19:15:00
1:35 PM,23.0,23.0,100,29.98,-9999.0,SE,9.2,-,N/A,,Unknown,140,2013-02-16 19:35:00
1:55 PM,23.0,23.0,100,29.98,-9999.0,SSE,6.9,-,N/A,,Unknown,160,2013-02-16 19:55:00
2:15 PM,23.0,23.0,100,29.98,-9999.0,SSE,5.8,-,N/A,,Unknown,150,2013-02-16 20:15:00
2:35 PM,23.0,23.0,100,29.97,-9999.0,SSE,6.9,-,N/A,,Unknown,150,2013-02-16 20:35:00
2:55 PM,23.0,23.0,100,29.98,-9999.0,SSE,5.8,-,N/A,,Unknown,160,2013-02-16 20:55:00
3:15 PM,24.8,24.8,100,29.97,-9999.0,South,8.1,-,N/A,,Unknown,190,2013-02-16 21:15:00
3:35 PM,24.8,24.8,100,29.97,-9999.0,South,5.8,-,N/A,,Unknown,180,2013-02-16 21:35:00
3:55 PM,24.8,24.8,100,29.97,-9999.0,South,5.8,-,N/A,,Unknown,170,2013-02-16 21:55:00
4:15 PM,24.8,23.0,93,29.97,-9999.0,South,5.8,-,N/A,,Unknown,180,2013-02-16 22:15:00
4:35 PM,24.8,23.0,93,29.96,-9999.0,South,8.1,-,N/A,,Unknown,190,2013-02-16 22:35:00
4:55 PM,24.8,23.0,93,29.96,-9999.0,South,6.9,-,N/A,,Unknown,190,2013-02-16 22:55:00
5:15 PM,24.8,23.0,93,29.97,-9999.0,South,5.8,-,N/A,,Unknown,180,2013-02-16 23:15:00
5:35 PM,24.8,23.0,93,29.96,-9999.0,South,5.8,-,N/A,,Unknown,170,2013-02-16 23:35:00
5:55 PM,24.8,23.0,93,29.97,-9999.0,South,5.8,-,N/A,,Unknown,170,2013-02-16 23:55:00
6:15 PM,24.8,23.0,93,29.98,-9999.0,SE,4.6,-,N/A,,Unknown,140,2013-02-17 00:15:00
6:35 PM,23.0,23.0,100,29.98,-9999.0,ESE,5.8,-,N/A,,Unknown,110,2013-02-17 00:35:00
6:55 PM,21.2,21.2,100,29.97,-9999.0,ESE,9.2,-,N/A,,Unknown,120,2013-02-17 00:55:00
7:15 PM,21.2,21.2,100,29.97,-9999.0,SE,9.2,-,N/A,,Unknown,130,2013-02-17 01:15:00
7:35 PM,23.0,23.0,100,29.96,-9999.0,SSE,6.9,-,N/A,,Overcast,150,2013-02-17 01:35:00
7:55 PM,24.8,23.0,93,29.96,-9999.0,SSE,11.5,-,N/A,,Unknown,160,2013-02-17 01:55:00
8:15 PM,23.0,23.0,100,29.94,-9999.0,South,13.8,-,N/A,,Unknown,170,2013-02-17 02:15:00
8:35 PM,23.0,23.0,100,29.95,-9999.0,SE,9.2,-,N/A,,Unknown,140,2013-02-17 02:35:00
8:55 PM,23.0,23.0,100,29.94,-9999.0,SSE,11.5,-,N/A,,Unknown,160,2013-02-17 02:55:00
9:15 PM,23.0,23.0,100,29.94,-9999.0,SSE,10.4,-,N/A,,Unknown,160,2013-02-17 03:15:00
9:35 PM,21.2,21.2,100,29.94,-9999.0,SSE,13.8,-,N/A,,Unknown,150,2013-02-17 03:35:00
9:55 PM,21.2,21.2,100,29.94,-9999.0,SSE,12.7,-,N/A,,Unknown,160,2013-02-17 03:55:00
10:15 PM,21.2,21.2,100,29.93,-9999.0,SSE,13.8,-,N/A,,Unknown,160,2013-02-17 04:15:00
10:35 PM,21.2,19.4,93,29.93,-9999.0,South,9.2,-,N/A,,Unknown,170,2013-02-17 04:35:00
10:55 PM,21.2,19.4,93,29.92,-9999.0,South,9.2,-,N/A,,Overcast,170,2013-02-17 04:55:00
11:15 PM,21.2,19.4,93,29.92,-9999.0,South,9.2,-,N/A,,Unknown,170,2013-02-17 05:15:00
11:55 PM,21.2,21.2,100,29.90,-9999.0,South,9.2,-,N/A,,Unknown,170,2013-02-17 05:55:00